Showing default

COSMOS 2587, 63290

Orbit data source: Space-Track

COSMOS 2587, 63290 is a payload satellite owned by VVKO VKS (CIS) in LEO that was launched on Sun, 16 Mar 2025 UTC via an ANGARA-1.2 launch vehicle from the Plesetsk Missile And Space Complex (PKMTR). Payload-class satellites include a variety of spacecraft equipped with specific instruments for various scientific and technological missions. These include communications satellites like Starlink; space stations such as the ISS; scientific satellites like the Hubble; Earth observation satellites from companies like Planet Labs, Umbra, and HawkEye 360; GPS; miniature CubeSats for education and research; and military/defense satellites.

Loading next visibility...
Identifier
63290, 2025-054C
Orbit
LEO
Last TLE update
9 hours ago
Origin
Manufacturer
Resehetnev ISS
Mission
Operational Defense Communications
Bus & Motor
STRELA-3M, Unknown motor
Mass
280 kg wet, 280 kg dry
Launch date (UTC)
2025-03-16 (2 months ago)
Launch vehicle
ANGARA-1.2
Launch site
Plesetsk Missile And Space Complex (PKMTR)
Object type
Payload
Rocket body
Debris
Shape & HBR
Cyl + 1 Ant, 7 m
Radar Cross Section
1.583 m², Large (>1 m²)

Expand to show TLE details & history

TLE from 9 hours ago
0 COSMOS 2587
1 63290U 25054C   25128.91251435  .00000045  00000-0  25191-3 0  9994
2 63290  82.4976 330.1939 0014573 168.5054 191.6361 12.42825436  6634
Epoch: 2025-05-08T21:54Z
Definitive object data (Epoch: 2025-05-08T21:54:01.239Z)
Latitude
-0.00006°
Longitude
134.71253°
Altitude
1,508.588 km
Speed
7.105 km/s
True Right ascension
22h 00m 46s
True Declination
0° 00' 00"
Sunlit
Object was in daylight at TLE epoch
Visualization TLE readout
Latitude
-24.13866°
Longitude
-42.14926°
Altitude
1,494.249 km
Speed
7.12 km/s
Apparent Right ascension
07h 33m 36s
Apparent Declination
-45° 27' 20"
Sunlit
Object is in daylight
Visualization observer readout
Local Sidereal Time
14:52:14
Azimuth
239.109° WSW
Elevation
-39.667°
Doppler factor
1
Orbital elements
Apogee altitude
1,503.469 km
Perigee altitude
1,480.531 km
Semi-major axis
7,870.137 km
Eccentricity
0.0014573
Inclination
82.4976°
RAAN
330.1939°
Arg. of periapsis
168.5054°
True anomaly
191.60248°
Mean anomaly
191.6361°
Eccentric anomaly
191.61928°
Mean motion
3.10864 °/min
BSTAR
0.00025191
Orbital period
115.81 mins
Loading maneuver chart data...
Loading SW <> Apogee altitude chart data...
Loading historical data...
Loading historical data...
Loading historical data...
Loading historical data...
Loading historical data...
Loading historical data...
Loading historical data...
Other satellites on launch #54 in the year 2025 (2025-03-16 UTC)

COSMOS 2587 Visibility forecast

Observer location: undefined°, undefined°

Span
Click to sort rows by Start time (UTC) header in descending order
Start Az.
Max El. time (UTC)
Max El. Az.
Max El.
End time (UTC)
End Az.
16 mins2025-05-09 13:26:21.817Z162.37° S2025-05-09 13:34:21.817Z87.099° E38.867°2025-05-09 13:42:21.817Z17.197° NNE
13 mins2025-05-09 15:25:21.817Z235.192° WSW2025-05-09 15:31:21.817Z289.23° WNW28.537°2025-05-09 15:38:21.817Z348.249° N
11 mins2025-05-09 23:39:21.817Z23.938° NE2025-05-09 23:44:21.817Z66.415° ENE22.995°2025-05-09 23:50:21.817Z115.133° SE
15 mins2025-05-10 01:35:21.817Z345.225° N2025-05-10 01:42:21.817Z250.809° W42.913°2025-05-10 01:50:21.817Z186.511° SSW
|